Location: Goheenville
(40.9070°N, 79.3720°W)
Time: 01:53:10
(UTC-04:00)

Meteor 2-10 Rocket - Visible Passes

Search period start: 22 August 2014 00:00
Search period end: 01 September 2014 00:00
Orbit: 734 x 886 km, 81.2° (Epoch: 21 August)

Date Brightness Start Highest point End Pass type
(mag) Time Alt. Az. Time Alt. Az. Time Alt. Az.
26 Aug 6.6 06:02:01 10° SE 06:05:48 19° E 06:09:30 10° NE visible
27 Aug 6.8 05:39:26 10° ESE 05:41:54 13° E 05:44:19 10° ENE visible
30 Aug 5.2 06:05:56 10° SSE 06:11:04 40° E 06:16:02 10° NNE visible
31 Aug 5.8 05:42:25 10° SSE 05:47:04 28° E 05:51:34 10° NNE visible
